Weather Roundup
Issued by NWS Chicago, IL

Home | Current Version | Previous Version | Graphics & Text | Print | Product List | Glossary On
Versions: 1 2 3 4 5 6 7 8 9 10 11 12 13 14 15 16 17 18 19 20 21 22 23 24 25 26 27 28 29 30 31 32 33 34 35 36 37 38 39 40 41 42 43 44 45 46 47 48 49 50
000
NZUS59 KLOT 290510
HRRLOT

CHICAGO AREA WEATHER ROUNDUP
NATIONAL WEATHER SERVICE CHICAGO/ROMEOVILLE IL
1200 AM CDT FRI AUG 29 2014

NOTE: "FAIR" INDICATES FEW OR NO CLOUDS BELOW 12,000 FEET WITH NO
SIGNIFICANT WEATHER AND/OR OBSTRUCTIONS TO VISIBILITY.

* THESE STATIONS ARE NOT UNDER NWS QUALITY CONTROL. THEY ALSO MAY NOT
  REPORT WEATHER SUCH AS PRECIPITATION OR FOG.

ILZ005-006-012>014-019>023-290600-
NORTHEAST ILLINOIS

CITY           SKY/WX    TMP DP  RH WIND       PRES   REMARKS
OHARE          CLOUDY    70  63  78 SE8       30.03F
MIDWAY         CLOUDY    74  67  78 SE8       30.03F
AURORA         CLOUDY    69  65  86 SE5       30.03F FOG
LANSING*       LGT RAIN  70  66  85 SE7       30.04F
JOLIET*        CLOUDY    69  65  88 SE5       30.03F
WAUKEGAN       CLOUDY    69  65  86 E6        30.03F
DUPAGE AIRPORT CLOUDY    69  65  86 SE6       30.03F
WHEELING       CLOUDY    71  64  78 SE5       30.04F
KANKAKEE*      DRIZZLE   71  67  89 SE7       30.05F
MORRIS*        CLOUDY    69  69 100 SE5       30.01F FOG
LEWIS AIRPORT* CLOUDY    69  67  93 SE7       30.03F
NORTHERLY IS     N/A     72  65  78 S7          N/A
$$

WIZ051-052-058>065-066-070>072-290600-
SOUTHEAST WISCONSIN

CITY           SKY/WX    TMP DP  RH WIND       PRES   REMARKS
MILWAUKEE      CLOUDY    68  59  73 SE9       30.04F
KENOSHA*       CLOUDY    69  65  86 E8        30.04F
RACINE*        CLOUDY    69  62  78 SE9       30.05F
BURLINGTON     MOCLDY    61  59  93 CALM      30.03F
WAUKESHA       MOCLDY    63  57  82 E7        30.05F
WEST BEND      CLOUDY    63  55  77 E5        30.04F
$$

INZ001>003-010>013-019-020-290600-
NORTHWEST INDIANA

CITY           SKY/WX    TMP DP  RH WIND       PRES   REMARKS
GARY*          LGT RAIN  72  67  84 SE3       30.05F
MICHIGAN CITY* NOT AVBL
RENSSELAER*    NOT AVBL
VALPARAISO     CLOUDY    70  64  81 SE9       30.07S
$$

LMZ740>746-290600-
SOUTHERN LAKE MICHIGAN

STATION/POSITION TIME  SKY/WX   TEMP WIND        PRES    VSBY
                                AIR  DIR/SP/G
                 (UTC)          (F)  (DEG/KT/KT) (MB)    (MI)
HARRISON CRIB    0500            72  150/  8/ 12   N/A
BURNHAM HARBOR   0500            72  150/  8       N/A
CALUMET HARBOR   0500            72  150/  7/ 12 1016.1F
BURNS HARBOR     NOT AVBL
MICHIGAN CITY    0500            72  120/  8/ 11   N/A
$$

ABBREVIATIONS USED IN REMARKS
   TC - TEMPERATURE IN CELSIUS
  WCI - WIND CHILL INDEX
   HX - HEAT INDEX
  VSB - VISIBILITY
$$


USA.gov is the U.S. government's official web portal to all federal, state and local government web resources and services.